Year,Month,Day,Hour,Minute,Value (Times are PST for windgust in km/hr)
2016,03,12,00,17,1.60
2016,03,12,00,18,3.20
2016,03,12,00,19,1.60
2016,03,12,00,21,3.20
2016,03,12,00,31,1.60
2016,03,12,01,03,1.60
2016,03,12,01,04,3.20
2016,03,12,01,05,4.80
2016,03,12,01,08,4.80
2016,03,12,01,09,8.10
2016,03,12,01,10,4.80
2016,03,12,01,11,3.20
2016,03,12,01,14,3.20
2016,03,12,01,15,4.80
2016,03,12,01,17,4.80
2016,03,12,01,18,6.40
2016,03,12,01,19,4.80
2016,03,12,01,20,4.80
2016,03,12,01,21,3.20
2016,03,12,01,37,1.60
2016,03,12,01,57,1.60
2016,03,12,02,37,4.80
2016,03,12,02,38,4.80
2016,03,12,02,39,3.20
2016,03,12,02,40,6.40
2016,03,12,02,41,4.80
2016,03,12,03,02,1.60
2016,03,12,03,03,1.60
2016,03,12,03,06,3.20
2016,03,12,03,07,1.60
2016,03,12,03,14,1.60
2016,03,12,03,32,1.60
2016,03,12,03,33,1.60
2016,03,12,03,50,3.20
2016,03,12,03,51,3.20
2016,03,12,03,52,3.20
2016,03,12,03,58,3.20
2016,03,12,03,59,3.20
2016,03,12,04,24,3.20
2016,03,12,04,25,3.20
2016,03,12,04,28,1.60
2016,03,12,04,29,3.20
2016,03,12,04,30,3.20
2016,03,12,04,31,1.60
2016,03,12,04,33,3.20
2016,03,12,04,34,3.20
2016,03,12,04,50,3.20
2016,03,12,04,51,3.20
2016,03,12,05,09,4.80
2016,03,12,05,10,4.80
2016,03,12,05,11,4.80
2016,03,12,05,12,3.20
2016,03,12,05,13,6.40
2016,03,12,05,14,8.10
2016,03,12,05,15,8.10
2016,03,12,05,16,6.40
2016,03,12,05,17,6.40
2016,03,12,05,18,4.80
2016,03,12,05,19,4.80
2016,03,12,05,23,3.20
2016,03,12,05,24,4.80
2016,03,12,05,25,4.80
2016,03,12,05,26,4.80
2016,03,12,05,27,4.80
2016,03,12,05,28,6.40
2016,03,12,05,29,9.60
2016,03,12,05,30,6.40
2016,03,12,05,31,8.10
2016,03,12,05,32,8.10
2016,03,12,05,33,8.10
2016,03,12,05,34,6.40
2016,03,12,05,35,9.60
2016,03,12,05,36,8.10
2016,03,12,05,37,6.40
2016,03,12,05,38,4.80
2016,03,12,05,39,4.80
2016,03,12,05,42,1.60
2016,03,12,05,46,1.60
2016,03,12,05,47,3.20
2016,03,12,06,07,3.20
2016,03,12,06,08,4.80
2016,03,12,06,09,4.80
2016,03,12,06,10,4.80
2016,03,12,06,11,4.80
2016,03,12,06,12,4.80
2016,03,12,06,13,4.80
2016,03,12,06,14,4.80
2016,03,12,06,15,6.40
2016,03,12,06,16,6.40
2016,03,12,06,17,6.40
2016,03,12,06,18,9.60
2016,03,12,06,19,6.40
2016,03,12,06,20,8.10
2016,03,12,06,21,4.80
2016,03,12,06,22,8.10
2016,03,12,06,23,6.40
2016,03,12,06,24,6.40
2016,03,12,06,25,6.40
2016,03,12,06,26,8.10
2016,03,12,06,27,6.40
2016,03,12,06,28,6.40
2016,03,12,06,29,4.80
2016,03,12,06,30,6.40
2016,03,12,06,31,6.40
2016,03,12,06,32,4.80
2016,03,12,06,33,6.40
2016,03,12,06,34,4.80
2016,03,12,06,35,4.80
2016,03,12,06,36,8.10
2016,03,12,06,37,4.80
2016,03,12,06,38,4.80
2016,03,12,06,39,6.40
2016,03,12,06,40,6.40
2016,03,12,06,41,6.40
2016,03,12,06,42,8.10
2016,03,12,06,43,6.40
2016,03,12,06,44,6.40
2016,03,12,06,45,4.80
2016,03,12,06,46,6.40
2016,03,12,06,47,6.40
2016,03,12,06,48,6.40
2016,03,12,06,49,6.40
2016,03,12,06,50,8.10
2016,03,12,06,51,8.10
2016,03,12,06,52,8.10
2016,03,12,06,53,8.10
2016,03,12,06,54,6.40
2016,03,12,06,55,8.10
2016,03,12,06,56,9.60
2016,03,12,06,57,9.60
2016,03,12,06,58,11.30
2016,03,12,06,59,14.50
2016,03,12,07,00,9.60
2016,03,12,07,01,9.60
2016,03,12,07,02,6.40
2016,03,12,07,03,14.50
2016,03,12,07,04,11.30
2016,03,12,07,05,8.10
2016,03,12,07,06,9.60
2016,03,12,07,07,3.20
2016,03,12,07,08,14.50
2016,03,12,07,09,8.10
2016,03,12,07,10,16.10
2016,03,12,07,11,14.50
2016,03,12,07,12,12.90
2016,03,12,07,13,11.30
2016,03,12,07,14,17.70
2016,03,12,07,15,19.30
2016,03,12,07,16,14.50
2016,03,12,07,17,16.10
2016,03,12,07,18,16.10
2016,03,12,07,19,9.60
2016,03,12,07,20,17.70
2016,03,12,07,21,11.30
2016,03,12,07,22,16.10
2016,03,12,07,23,14.50
2016,03,12,07,24,14.50
2016,03,12,07,25,20.90
2016,03,12,07,26,19.30
2016,03,12,07,27,11.30
2016,03,12,07,28,9.60
2016,03,12,07,29,16.10
2016,03,12,07,30,22.50
2016,03,12,07,31,17.70
2016,03,12,07,32,19.30
2016,03,12,07,33,24.20
2016,03,12,07,34,24.20
2016,03,12,07,35,20.90
2016,03,12,07,36,24.20
2016,03,12,07,37,22.50
2016,03,12,07,38,27.40
2016,03,12,07,39,24.20
2016,03,12,07,40,16.10
2016,03,12,07,41,20.90
2016,03,12,07,42,30.60
2016,03,12,07,43,19.30
2016,03,12,07,44,29.00
2016,03,12,07,45,20.90
2016,03,12,07,46,22.50
2016,03,12,07,47,24.20
2016,03,12,07,48,19.30
2016,03,12,07,49,19.30
2016,03,12,07,50,24.20
2016,03,12,07,51,19.30
2016,03,12,07,52,22.50
2016,03,12,07,53,16.10
2016,03,12,07,54,20.90
2016,03,12,07,55,16.10
2016,03,12,07,56,24.20
2016,03,12,07,57,19.30
2016,03,12,07,58,16.10
2016,03,12,07,59,17.70
2016,03,12,08,00,19.30
2016,03,12,08,01,20.90
2016,03,12,08,02,22.50
2016,03,12,08,03,20.90
2016,03,12,08,04,20.90
2016,03,12,08,05,19.30
2016,03,12,08,06,17.70
2016,03,12,08,07,20.90
2016,03,12,08,08,17.70
2016,03,12,08,09,19.30
2016,03,12,08,10,19.30
2016,03,12,08,11,16.10
2016,03,12,08,12,17.70
2016,03,12,08,13,19.30
2016,03,12,08,14,17.70
2016,03,12,08,15,16.10
2016,03,12,08,16,22.50
2016,03,12,08,17,19.30
2016,03,12,08,18,16.10
2016,03,12,08,19,17.70
2016,03,12,08,20,16.10
2016,03,12,08,21,19.30
2016,03,12,08,22,17.70
2016,03,12,08,23,14.50
2016,03,12,08,24,12.90
2016,03,12,08,25,16.10
2016,03,12,08,26,20.90
2016,03,12,08,27,17.70
2016,03,12,08,28,16.10
2016,03,12,08,29,14.50
2016,03,12,08,30,24.20
2016,03,12,08,31,17.70
2016,03,12,08,32,12.90
2016,03,12,08,33,14.50
2016,03,12,08,34,14.50
2016,03,12,08,35,19.30
2016,03,12,08,36,11.30
2016,03,12,08,37,8.10
2016,03,12,08,38,17.70
2016,03,12,08,39,8.10
2016,03,12,08,40,8.10
2016,03,12,08,41,9.60
2016,03,12,08,42,9.60
2016,03,12,08,43,20.90
2016,03,12,08,44,20.90
2016,03,12,08,45,17.70
2016,03,12,08,46,17.70
2016,03,12,08,47,9.60
2016,03,12,08,48,19.30
2016,03,12,08,49,20.90
2016,03,12,08,50,19.30
2016,03,12,08,51,14.50
2016,03,12,08,52,14.50
2016,03,12,08,53,20.90
2016,03,12,08,54,22.50
2016,03,12,08,55,12.90
2016,03,12,08,56,16.10
2016,03,12,08,57,17.70
2016,03,12,08,58,11.30
2016,03,12,08,59,11.30
2016,03,12,09,00,9.60
2016,03,12,09,01,16.10
2016,03,12,09,02,14.50
2016,03,12,09,03,9.60
2016,03,12,09,04,12.90
2016,03,12,09,05,9.60
2016,03,12,09,06,16.10
2016,03,12,09,07,9.60
2016,03,12,09,08,16.10
2016,03,12,09,09,11.30
2016,03,12,09,10,9.60
2016,03,12,09,11,9.60
2016,03,12,09,12,8.10
2016,03,12,09,13,14.50
2016,03,12,09,14,17.70
2016,03,12,09,15,14.50
2016,03,12,09,16,8.10
2016,03,12,09,17,6.40
2016,03,12,09,18,8.10
2016,03,12,09,19,9.60
2016,03,12,09,20,11.30
2016,03,12,09,21,20.90
2016,03,12,09,22,19.30
2016,03,12,09,23,20.90
2016,03,12,09,24,22.50
2016,03,12,09,25,9.60
2016,03,12,09,26,8.10
2016,03,12,09,27,16.10
2016,03,12,09,28,20.90
2016,03,12,09,29,17.70
2016,03,12,09,30,16.10
2016,03,12,09,31,12.90
2016,03,12,09,32,16.10
2016,03,12,09,33,17.70
2016,03,12,09,34,19.30
2016,03,12,09,35,12.90
2016,03,12,09,36,11.30
2016,03,12,09,37,9.60
2016,03,12,09,38,17.70
2016,03,12,09,39,9.60
2016,03,12,09,40,16.10
2016,03,12,09,41,20.90
2016,03,12,09,42,17.70
2016,03,12,09,43,9.60
2016,03,12,09,44,12.90
2016,03,12,09,45,12.90
2016,03,12,09,46,12.90
2016,03,12,09,47,20.90
2016,03,12,09,48,16.10
2016,03,12,09,49,14.50
2016,03,12,09,50,14.50
2016,03,12,09,51,16.10
2016,03,12,09,52,19.30
2016,03,12,09,53,16.10
2016,03,12,09,54,11.30
2016,03,12,09,55,11.30
2016,03,12,09,56,11.30
2016,03,12,09,57,11.30
2016,03,12,09,58,6.40
2016,03,12,09,59,8.10
2016,03,12,10,00,17.70
2016,03,12,10,01,17.70
2016,03,12,10,02,24.20
2016,03,12,10,03,24.20
2016,03,12,10,04,16.10
2016,03,12,10,05,24.20
2016,03,12,10,06,17.70
2016,03,12,10,07,17.70
2016,03,12,10,08,19.30
2016,03,12,10,09,17.70
2016,03,12,10,10,27.40
2016,03,12,10,11,22.50
2016,03,12,10,12,14.50
2016,03,12,10,13,17.70
2016,03,12,10,14,19.30
2016,03,12,10,15,19.30
2016,03,12,10,16,22.50
2016,03,12,10,17,17.70
2016,03,12,10,18,9.60
2016,03,12,10,19,14.50
2016,03,12,10,20,19.30
2016,03,12,10,21,14.50
2016,03,12,10,22,14.50
2016,03,12,10,23,8.10
2016,03,12,10,24,8.10
2016,03,12,10,25,6.40
2016,03,12,10,26,11.30
2016,03,12,10,27,17.70
2016,03,12,10,28,11.30
2016,03,12,10,29,11.30
2016,03,12,10,30,22.50
2016,03,12,10,31,16.10
2016,03,12,10,32,11.30
2016,03,12,10,33,6.40
2016,03,12,10,34,9.60
2016,03,12,10,35,9.60
2016,03,12,10,36,8.10
2016,03,12,10,37,6.40
2016,03,12,10,38,4.80
2016,03,12,10,39,8.10
2016,03,12,10,40,6.40
2016,03,12,10,41,4.80
2016,03,12,10,42,3.20
2016,03,12,10,43,8.10
2016,03,12,10,44,11.30
2016,03,12,10,45,9.60
2016,03,12,10,46,11.30
2016,03,12,10,47,9.60
2016,03,12,10,48,11.30
2016,03,12,10,49,8.10
2016,03,12,10,50,14.50
2016,03,12,10,51,11.30
2016,03,12,10,52,14.50
2016,03,12,10,53,12.90
2016,03,12,10,54,14.50
2016,03,12,10,55,14.50
2016,03,12,10,56,16.10
2016,03,12,10,57,22.50
2016,03,12,10,58,9.60
2016,03,12,10,59,8.10
2016,03,12,11,00,9.60
2016,03,12,11,01,9.60
2016,03,12,11,02,6.40
2016,03,12,11,03,14.50
2016,03,12,11,04,9.60
2016,03,12,11,05,14.50
2016,03,12,11,06,4.80
2016,03,12,11,07,4.80
2016,03,12,11,08,8.10
2016,03,12,11,09,9.60
2016,03,12,11,10,12.90
2016,03,12,11,11,11.30
2016,03,12,11,12,11.30
2016,03,12,11,13,14.50
2016,03,12,11,14,14.50
2016,03,12,11,15,20.90
2016,03,12,11,16,17.70
2016,03,12,11,17,9.60
2016,03,12,11,18,11.30
2016,03,12,11,19,9.60
2016,03,12,11,20,6.40
2016,03,12,11,21,6.40
2016,03,12,11,22,4.80
2016,03,12,11,23,11.30
2016,03,12,11,24,9.60
2016,03,12,11,25,6.40
2016,03,12,11,26,8.10
2016,03,12,11,27,9.60
2016,03,12,11,28,16.10
2016,03,12,11,29,19.30
2016,03,12,11,30,17.70
2016,03,12,11,31,17.70
2016,03,12,11,32,8.10
2016,03,12,11,33,9.60
2016,03,12,11,34,9.60
2016,03,12,11,35,8.10
2016,03,12,11,36,12.90
2016,03,12,11,37,8.10
2016,03,12,11,38,14.50
2016,03,12,11,39,9.60
2016,03,12,11,40,6.40
2016,03,12,11,41,9.60
2016,03,12,11,42,11.30
2016,03,12,11,43,14.50
2016,03,12,11,44,12.90
2016,03,12,11,45,9.60
2016,03,12,11,46,6.40
2016,03,12,11,47,8.10
2016,03,12,11,48,8.10
2016,03,12,11,49,11.30
2016,03,12,11,50,6.40
2016,03,12,11,51,11.30
2016,03,12,11,52,11.30
2016,03,12,11,53,11.30
2016,03,12,11,54,16.10
2016,03,12,11,55,6.40
2016,03,12,11,56,6.40
2016,03,12,11,57,9.60
2016,03,12,11,58,6.40
2016,03,12,11,59,9.60
2016,03,12,12,00,6.40
2016,03,12,12,01,3.20
2016,03,12,12,02,9.60
2016,03,12,12,03,8.10
2016,03,12,12,04,8.10
2016,03,12,12,05,8.10
2016,03,12,12,06,6.40
2016,03,12,12,07,11.30
2016,03,12,12,08,9.60
2016,03,12,12,09,11.30
2016,03,12,12,10,12.90
2016,03,12,12,11,9.60
2016,03,12,12,12,14.50
2016,03,12,12,13,11.30
2016,03,12,12,14,9.60
2016,03,12,12,15,6.40
2016,03,12,12,16,4.80
2016,03,12,12,17,8.10
2016,03,12,12,18,6.40
2016,03,12,12,19,9.60
2016,03,12,12,20,16.10
2016,03,12,12,21,14.50
2016,03,12,12,22,9.60
2016,03,12,12,23,9.60
2016,03,12,12,24,9.60
2016,03,12,12,25,9.60
2016,03,12,12,26,11.30
2016,03,12,12,27,6.40
2016,03,12,12,28,6.40
2016,03,12,12,29,6.40
2016,03,12,12,30,6.40
2016,03,12,12,31,4.80
2016,03,12,12,32,8.10
2016,03,12,12,33,14.50
2016,03,12,12,34,9.60
2016,03,12,12,35,6.40
2016,03,12,12,36,9.60
2016,03,12,12,37,8.10
2016,03,12,12,38,3.20
2016,03,12,12,39,8.10
2016,03,12,12,40,6.40
2016,03,12,12,41,6.40
2016,03,12,12,42,9.60
2016,03,12,12,43,9.60
2016,03,12,12,44,9.60
2016,03,12,12,45,6.40
2016,03,12,12,46,9.60
2016,03,12,12,47,9.60
2016,03,12,12,48,3.20
2016,03,12,12,49,8.10
2016,03,12,12,50,6.40
2016,03,12,12,51,9.60
2016,03,12,12,52,4.80
2016,03,12,12,53,6.40
2016,03,12,12,54,3.20
2016,03,12,12,55,6.40
2016,03,12,12,56,6.40
2016,03,12,12,57,8.10
2016,03,12,12,58,8.10
2016,03,12,12,59,4.80
2016,03,12,13,00,3.20
2016,03,12,13,01,4.80
2016,03,12,13,02,3.20
2016,03,12,13,03,6.40
2016,03,12,13,04,8.10
2016,03,12,13,05,4.80
2016,03,12,13,06,4.80
2016,03,12,13,07,4.80
2016,03,12,13,08,9.60
2016,03,12,13,09,9.60
2016,03,12,13,10,8.10
2016,03,12,13,11,8.10
2016,03,12,13,12,8.10
2016,03,12,13,13,8.10
2016,03,12,13,14,6.40
2016,03,12,13,15,8.10
2016,03,12,13,16,8.10
2016,03,12,13,17,8.10
2016,03,12,13,18,9.60
2016,03,12,13,19,6.40
2016,03,12,13,20,9.60
2016,03,12,13,21,11.30
2016,03,12,13,22,6.40
2016,03,12,13,23,9.60
2016,03,12,13,24,6.40
2016,03,12,13,25,8.10
2016,03,12,13,26,4.80
2016,03,12,13,27,6.40
2016,03,12,13,28,6.40
2016,03,12,13,29,6.40
2016,03,12,13,30,9.60
2016,03,12,13,31,8.10
2016,03,12,13,32,8.10
2016,03,12,13,33,9.60
2016,03,12,13,34,6.40
2016,03,12,13,35,6.40
2016,03,12,13,36,8.10
2016,03,12,13,37,8.10
2016,03,12,13,38,6.40
2016,03,12,13,39,8.10
2016,03,12,13,40,11.30
2016,03,12,13,41,9.60
2016,03,12,13,42,8.10
2016,03,12,13,43,8.10
2016,03,12,13,44,9.60
2016,03,12,13,45,9.60
2016,03,12,13,46,4.80
2016,03,12,13,47,4.80
2016,03,12,13,48,6.40
2016,03,12,13,49,8.10
2016,03,12,13,50,4.80
2016,03,12,13,51,4.80
2016,03,12,13,52,9.60
2016,03,12,13,53,8.10
2016,03,12,13,54,1.60
2016,03,12,13,55,6.40
2016,03,12,13,56,8.10
2016,03,12,13,57,6.40
2016,03,12,13,58,6.40
2016,03,12,13,59,9.60
2016,03,12,14,00,6.40
2016,03,12,14,01,8.10
2016,03,12,14,02,8.10
2016,03,12,14,03,6.40
2016,03,12,14,04,8.10
2016,03,12,14,05,6.40
2016,03,12,14,06,6.40
2016,03,12,14,07,6.40
2016,03,12,14,08,6.40
2016,03,12,14,09,6.40
2016,03,12,14,10,6.40
2016,03,12,14,11,6.40
2016,03,12,14,12,6.40
2016,03,12,14,13,9.60
2016,03,12,14,14,9.60
2016,03,12,14,15,9.60
2016,03,12,14,16,9.60
2016,03,12,14,17,9.60
2016,03,12,14,18,8.10
2016,03,12,14,19,8.10
2016,03,12,14,20,8.10
2016,03,12,14,21,9.60
2016,03,12,14,22,8.10
2016,03,12,14,23,8.10
2016,03,12,14,24,6.40
2016,03,12,14,25,4.80
2016,03,12,14,26,11.30
2016,03,12,14,27,11.30
2016,03,12,14,28,9.60
2016,03,12,14,29,9.60
2016,03,12,14,30,4.80
2016,03,12,14,31,4.80
2016,03,12,14,32,6.40
2016,03,12,14,33,8.10
2016,03,12,14,34,9.60
2016,03,12,14,35,9.60
2016,03,12,14,36,9.60
2016,03,12,14,37,8.10
2016,03,12,14,38,9.60
2016,03,12,14,39,11.30
2016,03,12,14,40,4.80
2016,03,12,14,41,11.30
2016,03,12,14,42,11.30
2016,03,12,14,43,11.30
2016,03,12,14,44,14.50
2016,03,12,14,45,11.30
2016,03,12,14,46,8.10
2016,03,12,14,47,11.30
2016,03,12,14,48,14.50
2016,03,12,14,49,9.60
2016,03,12,14,50,16.10
2016,03,12,14,51,16.10
2016,03,12,14,52,8.10
2016,03,12,14,53,11.30
2016,03,12,14,54,9.60
2016,03,12,14,55,16.10
2016,03,12,14,56,19.30
2016,03,12,14,57,14.50
2016,03,12,14,58,16.10
2016,03,12,14,59,20.90
2016,03,12,15,00,16.10
2016,03,12,15,01,16.10
2016,03,12,15,02,20.90
2016,03,12,15,03,19.30
2016,03,12,15,04,19.30
2016,03,12,15,05,19.30
2016,03,12,15,06,9.60
2016,03,12,15,07,11.30
2016,03,12,15,08,19.30
2016,03,12,15,09,14.50
2016,03,12,15,10,17.70
2016,03,12,15,11,17.70
2016,03,12,15,12,19.30
2016,03,12,15,13,16.10
2016,03,12,15,14,16.10
2016,03,12,15,15,14.50
2016,03,12,15,16,19.30
2016,03,12,15,17,12.90
2016,03,12,15,18,16.10
2016,03,12,15,19,19.30
2016,03,12,15,20,19.30
2016,03,12,15,21,20.90
2016,03,12,15,22,19.30
2016,03,12,15,23,16.10
2016,03,12,15,24,20.90
2016,03,12,15,25,14.50
2016,03,12,15,26,14.50
2016,03,12,15,27,11.30
2016,03,12,15,28,19.30
2016,03,12,15,29,14.50
2016,03,12,15,30,17.70
2016,03,12,15,31,20.90
2016,03,12,15,32,12.90
2016,03,12,15,33,17.70
2016,03,12,15,34,16.10
2016,03,12,15,35,9.60
2016,03,12,15,36,17.70
2016,03,12,15,37,25.70
2016,03,12,15,38,20.90
2016,03,12,15,39,19.30
2016,03,12,15,40,17.70
2016,03,12,15,41,14.50
2016,03,12,15,42,16.10
2016,03,12,15,43,24.20
2016,03,12,15,44,17.70
2016,03,12,15,45,20.90
2016,03,12,15,46,29.00
2016,03,12,15,47,24.20
2016,03,12,15,48,22.50
2016,03,12,15,49,9.60
2016,03,12,15,50,19.30
2016,03,12,15,51,24.20
2016,03,12,15,52,20.90
2016,03,12,15,53,24.20
2016,03,12,15,54,17.70
2016,03,12,15,55,20.90
2016,03,12,15,56,20.90
2016,03,12,15,57,22.50
2016,03,12,15,58,19.30
2016,03,12,15,59,20.90
2016,03,12,16,00,22.50
2016,03,12,16,01,16.10
2016,03,12,16,02,20.90
2016,03,12,16,03,17.70
2016,03,12,16,04,16.10
2016,03,12,16,05,17.70
2016,03,12,16,06,17.70
2016,03,12,16,07,16.10
2016,03,12,16,08,16.10
2016,03,12,16,09,17.70
2016,03,12,16,10,16.10
2016,03,12,16,11,14.50
2016,03,12,16,12,9.60
2016,03,12,16,13,9.60
2016,03,12,16,14,9.60
2016,03,12,16,15,11.30
2016,03,12,16,16,16.10
2016,03,12,16,17,12.90
2016,03,12,16,18,8.10
2016,03,12,16,19,16.10
2016,03,12,16,20,8.10
2016,03,12,16,21,16.10
2016,03,12,16,22,16.10
2016,03,12,16,23,14.50
2016,03,12,16,24,20.90
2016,03,12,16,25,11.30
2016,03,12,16,26,19.30
2016,03,12,16,27,25.70
2016,03,12,16,28,20.90
2016,03,12,16,29,19.30
2016,03,12,16,30,24.20
2016,03,12,16,31,19.30
2016,03,12,16,32,11.30
2016,03,12,16,33,12.90
2016,03,12,16,34,14.50
2016,03,12,16,35,9.60
2016,03,12,16,36,16.10
2016,03,12,16,37,16.10
2016,03,12,16,38,14.50
2016,03,12,16,39,20.90
2016,03,12,16,40,16.10
2016,03,12,16,41,11.30
2016,03,12,16,42,22.50
2016,03,12,16,43,11.30
2016,03,12,16,44,17.70
2016,03,12,16,45,19.30
2016,03,12,16,46,17.70
2016,03,12,16,47,16.10
2016,03,12,16,48,11.30
2016,03,12,16,49,11.30
2016,03,12,16,50,17.70
2016,03,12,16,51,17.70
2016,03,12,16,52,16.10
2016,03,12,16,53,11.30
2016,03,12,16,54,9.60
2016,03,12,16,55,19.30
2016,03,12,16,56,19.30
2016,03,12,16,57,16.10
2016,03,12,16,58,11.30
2016,03,12,16,59,14.50
2016,03,12,17,00,14.50
2016,03,12,17,01,20.90
2016,03,12,17,02,20.90
2016,03,12,17,03,20.90
2016,03,12,17,04,12.90
2016,03,12,17,05,22.50
2016,03,12,17,06,20.90
2016,03,12,17,07,17.70
2016,03,12,17,08,17.70
2016,03,12,17,09,19.30
2016,03,12,17,10,19.30
2016,03,12,17,11,19.30
2016,03,12,17,12,20.90
2016,03,12,17,13,22.50
2016,03,12,17,14,19.30
2016,03,12,17,15,16.10
2016,03,12,17,16,22.50
2016,03,12,17,17,25.70
2016,03,12,17,18,24.20
2016,03,12,17,19,16.10
2016,03,12,17,20,22.50
2016,03,12,17,21,16.10
2016,03,12,17,22,20.90
2016,03,12,17,23,8.10
2016,03,12,17,24,20.90
2016,03,12,17,25,9.60
2016,03,12,17,26,20.90
2016,03,12,17,27,19.30
2016,03,12,17,28,20.90
2016,03,12,17,29,14.50
2016,03,12,17,30,17.70
2016,03,12,17,31,17.70
2016,03,12,17,32,19.30
2016,03,12,17,33,24.20
2016,03,12,17,34,14.50
2016,03,12,17,35,11.30
2016,03,12,17,36,14.50
2016,03,12,17,37,12.90
2016,03,12,17,38,19.30
2016,03,12,17,39,17.70
2016,03,12,17,40,8.10
2016,03,12,17,41,9.60
2016,03,12,17,42,12.90
2016,03,12,17,43,16.10
2016,03,12,17,44,16.10
2016,03,12,17,45,9.60
2016,03,12,17,46,4.80
2016,03,12,17,47,8.10
2016,03,12,17,48,9.60
2016,03,12,17,49,11.30
2016,03,12,17,50,11.30
2016,03,12,17,51,6.40
2016,03,12,17,52,3.20
2016,03,12,17,53,6.40
2016,03,12,17,54,3.20
2016,03,12,17,55,6.40
2016,03,12,17,56,6.40
2016,03,12,17,57,6.40
2016,03,12,17,58,6.40
2016,03,12,17,59,6.40
2016,03,12,18,00,6.40
2016,03,12,18,01,8.10
2016,03,12,18,02,9.60
2016,03,12,18,03,6.40
2016,03,12,18,04,8.10
2016,03,12,18,05,6.40
2016,03,12,18,06,8.10
2016,03,12,18,07,8.10
2016,03,12,18,08,6.40
2016,03,12,18,09,9.60
2016,03,12,18,10,16.10
2016,03,12,18,11,14.50
2016,03,12,18,12,11.30
2016,03,12,18,13,9.60
2016,03,12,18,14,14.50
2016,03,12,18,15,11.30
2016,03,12,18,16,16.10
2016,03,12,18,17,14.50
2016,03,12,18,18,16.10
2016,03,12,18,19,16.10
2016,03,12,18,20,14.50
2016,03,12,18,21,11.30
2016,03,12,18,22,11.30
2016,03,12,18,23,14.50
2016,03,12,18,24,11.30
2016,03,12,18,25,9.60
2016,03,12,18,26,19.30
2016,03,12,18,27,17.70
2016,03,12,18,28,16.10
2016,03,12,18,29,11.30
2016,03,12,18,30,16.10
2016,03,12,18,31,9.60
2016,03,12,18,32,8.10
2016,03,12,18,33,14.50
2016,03,12,18,34,14.50
2016,03,12,18,35,16.10
2016,03,12,18,36,8.10
2016,03,12,18,37,16.10
2016,03,12,18,38,9.60
2016,03,12,18,39,11.30
2016,03,12,18,40,11.30
2016,03,12,18,41,9.60
2016,03,12,18,42,8.10
2016,03,12,18,43,9.60
2016,03,12,18,44,8.10
2016,03,12,18,45,11.30
2016,03,12,18,46,11.30
2016,03,12,18,47,14.50
2016,03,12,18,48,11.30
2016,03,12,18,49,12.90
2016,03,12,18,50,9.60
2016,03,12,18,51,11.30
2016,03,12,18,52,11.30
2016,03,12,18,53,8.10
2016,03,12,18,54,8.10
2016,03,12,18,55,8.10
2016,03,12,18,56,11.30
2016,03,12,18,57,4.80
2016,03,12,18,58,3.20
2016,03,12,18,59,3.20
2016,03,12,19,00,3.20
2016,03,12,19,01,4.80
2016,03,12,19,02,6.40
2016,03,12,19,03,4.80
2016,03,12,19,13,4.80
2016,03,12,19,14,3.20
2016,03,12,19,15,4.80
2016,03,12,19,16,4.80
2016,03,12,19,18,3.20
2016,03,12,19,19,3.20
2016,03,12,19,20,3.20
2016,03,12,19,21,3.20
2016,03,12,19,22,1.60
2016,03,12,19,23,3.20
2016,03,12,19,24,1.60
2016,03,12,19,37,1.60
2016,03,12,21,09,3.20
2016,03,12,21,10,3.20
2016,03,12,21,11,4.80
2016,03,12,21,12,3.20
2016,03,12,21,13,3.20
2016,03,12,21,14,4.80
2016,03,12,21,15,3.20
2016,03,12,21,16,4.80
2016,03,12,21,18,4.80
2016,03,12,21,19,8.10
2016,03,12,21,20,8.10
2016,03,12,21,21,8.10
2016,03,12,21,22,8.10
2016,03,12,21,23,6.40
2016,03,12,21,24,9.60
2016,03,12,21,25,8.10
2016,03,12,21,26,6.40
2016,03,12,21,27,8.10
2016,03,12,21,28,9.60
2016,03,12,21,29,9.60
2016,03,12,21,30,8.10
2016,03,12,21,31,6.40
2016,03,12,21,32,9.60
2016,03,12,21,33,11.30
2016,03,12,21,34,9.60
2016,03,12,21,35,11.30
2016,03,12,21,36,9.60
2016,03,12,21,37,9.60
2016,03,12,21,38,8.10
2016,03,12,21,39,8.10
2016,03,12,21,40,8.10
2016,03,12,21,41,8.10
2016,03,12,21,42,4.80
2016,03,12,21,43,4.80
2016,03,12,21,44,4.80
2016,03,12,21,45,4.80
2016,03,12,21,46,4.80
2016,03,12,21,47,6.40
2016,03,12,21,48,6.40
2016,03,12,21,49,6.40
2016,03,12,21,50,8.10
2016,03,12,21,51,4.80
2016,03,12,21,52,6.40
2016,03,12,21,53,3.20
2016,03,12,21,54,3.20
2016,03,12,21,55,4.80
2016,03,12,21,56,4.80
2016,03,12,21,57,3.20
2016,03,12,21,59,3.20
2016,03,12,22,00,3.20
2016,03,12,22,01,3.20
2016,03,12,22,02,1.60
2016,03,12,22,03,4.80
2016,03,12,22,04,4.80
2016,03,12,22,05,3.20
2016,03,12,22,06,3.20
2016,03,12,22,07,3.20
2016,03,12,22,08,3.20
2016,03,12,22,09,3.20
2016,03,12,22,10,3.20
2016,03,12,22,12,3.20
2016,03,12,22,13,3.20
2016,03,12,22,17,1.60
2016,03,12,22,18,1.60
2016,03,12,22,19,3.20
2016,03,12,22,20,1.60
2016,03,12,22,43,1.60
2016,03,12,22,44,4.80
2016,03,12,22,45,3.20
2016,03,12,22,46,3.20
2016,03,12,22,47,3.20
2016,03,12,22,48,3.20
2016,03,12,22,49,3.20
2016,03,12,22,50,3.20
2016,03,12,22,53,3.20
2016,03,12,22,55,1.60
2016,03,12,22,57,3.20
2016,03,12,22,58,3.20
2016,03,12,22,59,4.80
2016,03,12,23,00,4.80
2016,03,12,23,01,4.80
2016,03,12,23,02,3.20
2016,03,12,23,03,4.80
2016,03,12,23,04,6.40
2016,03,12,23,05,8.10
2016,03,12,23,06,6.40
2016,03,12,23,07,8.10
2016,03,12,23,08,6.40
2016,03,12,23,09,6.40
2016,03,12,23,10,6.40
2016,03,12,23,11,4.80
2016,03,12,23,12,1.60
2016,03,12,23,13,1.60
2016,03,12,23,15,3.20
2016,03,12,23,22,3.20
2016,03,12,23,23,3.20
2016,03,12,23,24,3.20
2016,03,12,23,25,4.80
2016,03,12,23,26,6.40
2016,03,12,23,27,4.80
2016,03,12,23,28,4.80
2016,03,12,23,29,4.80
2016,03,12,23,30,3.20
2016,03,12,23,31,1.60
2016,03,12,23,33,4.80
2016,03,12,23,35,4.80
2016,03,12,23,36,3.20
2016,03,12,23,37,4.80
2016,03,12,23,38,6.40
2016,03,12,23,39,4.80
2016,03,12,23,40,6.40
2016,03,12,23,41,6.40
2016,03,12,23,42,3.20
2016,03,12,23,45,3.20
2016,03,12,23,46,3.20
2016,03,12,23,47,4.80
2016,03,12,23,48,6.40
2016,03,12,23,49,6.40
2016,03,12,23,50,6.40
2016,03,12,23,51,6.40
2016,03,12,23,52,8.10
2016,03,12,23,53,8.10
2016,03,12,23,54,9.60
2016,03,12,23,55,9.60
2016,03,12,23,56,8.10
2016,03,12,23,57,9.60
2016,03,12,23,58,9.60
2016,03,12,23,59,9.60
